Volver al catálogo

CZ-4 DEB

ActivoSSO
NORAD 20853·DEBRIS·🇨🇳 China

Lanzado Sep 3, 1990 desde Taiyuan Satellite Launch Center

Loading…

Próximos Pases (próximas 24 horas)

TLE

ActualizadoSource: Space-Track

Época: Sep 14, 2026, 12:08 UTC

1 20853U 90081R   26257.50624105  .00005920  00000-0  10097-2 0  9996
2 20853  98.2425 267.8715 0014576   0.9537 151.6942 14.69291655871511

Sigue CZ-4 DEB en tiempo real con AllMySat

Download on the App Store